GW0194 Weather Reports


Display with metric or nautical units.
time (UTC)temp
F
wind
direction
speed
MPH
gust
MPH
rain 1hr
in
rain 24hr
in
rain mn
in
humidity
%
barometer
mb
20260906221536 86 0 0.0 3.0 0.00 0.00 0.00 39 1016.4
20260906220037 85 0 0.0 2.0 0.00 0.00 0.00 39 1016.8
20260906214535 86 1 0.0 4.0 0.00 0.00 0.00 38 1016.9
20260906213034 87 110 1.0 5.0 0.00 0.00 0.00 37 1017.2
20260906211537 87 0 1.0 5.0 0.00 0.00 0.00 37 1017.3
20260906210036 86 32 0.0 3.0 0.00 0.00 0.00 39 1017.7
20260906204546 85 4 0.0 4.0 0.00 0.00 0.00 38 1017.8
20260906203036 84 0 0.0 1.0 0.00 0.00 0.00 41 1018.0
20260906201549 85 37 1.0 8.0 0.00 0.00 0.00 37 1018.2
20260906200036 85 245 0.0 6.0 0.00 0.00 0.00 38 1018.0
20260906194535 84 0 2.0 8.0 0.00 0.00 0.00 36 1018.3
20260906193033 83 41 3.0 7.0 0.00 0.00 0.00 44 1018.5
20260906191534 83 6 2.0 6.0 0.00 0.00 0.00 46 1018.7
20260906190037 82 23 2.0 10.0 0.00 0.00 0.00 46 1018.9
20260906184536 82 23 4.0 7.0 0.00 0.00 0.00 43 1019.2
20260906183036 82 33 1.0 6.0 0.00 0.00 0.00 47 1019.6
20260906181536 81 340 2.0 8.0 0.00 0.00 0.00 55 1019.8
20260906180054 80 107 1.0 7.0 0.00 0.00 0.00 50 1020.0
20260906174538 79 117 2.0 4.0 0.00 0.00 0.00 48 1020.3
20260906173034 78 49 1.0 5.0 0.00 0.00 0.00 48 1020.7
20260906171536 78 74 1.0 4.0 0.00 0.00 0.00 50 1021.0
20260906170036 78 60 1.0 3.0 0.00 0.00 0.00 53 1021.0
20260906164535 75 46 1.0 3.0 0.00 0.00 0.00 52 1021.2
20260906163033 74 0 1.0 4.0 0.00 0.00 0.00 62 1021.3
20260906161543 72 39 1.0 3.0 0.00 0.00 0.00 63 1021.3
20260906160038 73 35 1.0 4.0 0.00 0.00 0.00 62 1021.3
20260906154543 72 49 1.0 3.0 0.00 0.00 0.00 66 1021.2
20260906153037 70 0 1.0 3.0 0.00 0.00 0.00 69 1021.2
20260906151536 69 0 0.0 3.0 0.00 0.00 0.00 73 1021.4
20260906150053 69 37 0.0 3.0 0.00 0.00 0.00 75 1021.4
20260906144536 67 43 0.0 1.0 0.00 0.00 0.00 77 1021.4
20260906143034 66 46 0.0 3.0 0.00 0.00 0.00 76 1021.5
20260906141535 68 46 1.0 4.0 0.00 0.00 0.00 74 1021.3
20260906140039 67 0 0.0 0.0 0.00 0.00 0.00 70 1021.3
20260906134534 64 0 0.0 0.0 0.00 0.00 0.00 74 1021.3
20260906133036 62 0 0.0 0.0 0.00 0.00 0.00 77 1021.3
20260906131538 59 0 0.0 0.0 0.00 0.00 0.00 79 1021.3
20260906130047 57 0 0.0 0.0 0.00 0.00 0.00 81 1021.3
20260906124536 56 0 0.0 0.0 0.00 0.00 0.00 82 1021.1
20260906123041 57 0 0.0 0.0 0.00 0.00 0.00 79 1020.8
20260906121538 57 0 0.0 0.0 0.00 0.00 0.00 79 1021.0
20260906120037 57 0 0.0 0.0 0.00 0.00 0.00 80 1020.8
20260906114539 57 0 0.0 1.0 0.00 0.00 0.00 81 1020.8
20260906113034 57 0 0.0 0.0 0.00 0.00 0.00 80 1020.7
20260906111546 58 0 0.0 1.0 0.00 0.00 0.00 76 1020.6
20260906110036 57 0 0.0 0.0 0.00 0.00 0.00 77 1020.5
20260906104541 57 0 0.0 0.0 0.00 0.00 0.00 76 1020.7
20260906103046 57 0 0.0 0.0 0.00 0.00 0.00 75 1020.6
20260906101536 58 0 0.0 2.0 0.00 0.00 0.00 73 1020.7
20260906100036 59 166 0.0 1.0 0.00 0.00 0.00 72 1020.8
20260906094546 59 0 0.0 2.0 0.00 0.00 0.00 71 1020.6
20260906093039 60 0 0.0 1.0 0.00 0.00 0.00 68 1020.6
20260906091538 62 0 0.0 1.0 0.00 0.00 0.00 65 1020.4
20260906090038 63 0 0.0 1.0 0.00 0.00 0.00 65 1020.1
20260906084535 62 0 0.0 1.0 0.00 0.00 0.00 65 1020.0
20260906083033 61 222 0.0 1.0 0.00 0.00 0.00 68 1019.9
20260906081539 60 0 0.0 0.0 0.00 0.00 0.00 68 1019.8
20260906080038 63 0 0.0 1.0 0.00 0.00 0.00 64 1019.9
20260906074538 63 0 0.0 0.0 0.00 0.00 0.00 64 1019.9
20260906073036 65 0 0.0 0.0 0.00 0.00 0.00 62 1020.0
20260906071534 66 0 0.0 0.0 0.00 0.00 0.00 60 1020.0
20260906070038 67 239 0.0 1.0 0.00 0.00 0.00 58 1019.8
20260906064535 68 0 0.0 0.0 0.00 0.00 0.00 56 1019.8
20260906063044 69 28 0.0 1.0 0.00 0.00 0.00 53 1019.9
20260906061539 71 0 0.0 1.0 0.00 0.00 0.00 51 1020.0
20260906060036 72 0 0.0 2.0 0.00 0.00 0.00 46 1019.8
20260906054550 74 0 0.0 1.0 0.00 0.00 0.00 44 1019.8
20260906053034 73 248 0.0 2.0 0.00 0.00 0.00 43 1020.4
20260906051537 71 0 0.0 2.0 0.00 0.00 0.00 46 1020.6
20260906050040 70 0 0.0 1.0 0.00 0.00 0.00 49 1020.2
20260906044537 70 0 0.0 1.0 0.00 0.00 0.00 54 1019.7
20260906043033 69 252 0.0 1.0 0.00 0.00 0.00 52 1019.9
20260906041537 70 0 0.0 2.0 0.00 0.00 0.00 52 1019.6
20260906040045 72 0 0.0 1.0 0.00 0.00 0.00 47 1019.3
20260906034547 72 0 0.0 1.0 0.00 0.00 0.00 46 1019.1
20260906033036 72 0 0.0 4.0 0.00 0.00 0.00 47 1018.7
20260906031601 73 118 0.0 1.0 0.00 0.00 0.00 47 1018.7
20260906030039 74 269 0.0 1.0 0.00 0.00 0.00 42 1018.4
20260906024554 75 0 0.0 0.0 0.00 0.00 0.00 40 1018.0
20260906023043 78 0 0.0 1.0 0.00 0.00 0.00 37 1018.0
20260906021538 80 0 0.0 0.0 0.00 0.00 0.00 33 1017.8
20260906020039 81 0 0.0 4.0 0.00 0.00 0.00 32 1017.8
20260906014535 81 335 1.0 12.0 0.00 0.00 0.00 31 1017.9
20260906013034 81 0 0.0 4.0 0.00 0.00 0.00 33 1017.7
20260906011535 82 235 0.0 3.0 0.00 0.00 0.00 32 1017.7
20260906010048 82 200 0.0 2.0 0.00 0.00 0.00 32 1017.7
20260906004540 84 234 0.0 3.0 0.00 0.00 0.00 32 1017.9
20260906003034 84 221 0.0 4.0 0.00 0.00 0.00 30 1017.8
20260906001537 85 165 1.0 6.0 0.00 0.00 0.00 31 1017.8
20260906000046 86 0 0.0 1.0 0.00 0.00 0.00 34 1017.7
20260905234542 84 0 0.0 0.0 0.00 0.00 0.00 42 1017.7
20260905233035 84 0 0.0 0.0 0.00 0.00 0.00 40 1017.5
20260905231538 85 0 0.0 0.0 0.00 0.00 0.00 38 1017.5
20260905230037 86 0 0.0 1.0 0.00 0.00 0.00 35 1017.4
20260905224536 86 0 0.0 6.0 0.00 0.00 0.00 30 1017.3
20260905223038 88 48 0.0 2.0 0.00 0.00 0.00 29 1017.3